Location: Newark
(52.5694°N, 1.3190°W)
Time: 21:07:41
(UTC+00:00)

N. Korean satellite - Pass Details

Date: 25 January 2020
Orbit: 456 x 505 km, 97.2° (Epoch: 23 February)

Event Time Altitude Azimuth Distance (km) Brightness Sun altitude
Rises 05:40:54 0° 18° (NNE) 2,533 10.4 -20.5°
Reaches altitude 10° 05:43:01 10° 25° (NNE) 1,658 9.5 -20.2°
Maximum altitude 05:46:27 45° 99° (E) 668 7.7 -19.7°
Drops below altitude 10° 05:49:55 10° 173° (S) 1,671 9.4 -19.2°
Sets 05:52:03 0° 180° (S) 2,555 10.3 -18.9°
